Location: Chircca
(13.7944°S, 72.0608°W)
Time: 06:22:19
(UTC+00:00)

Cosmos 2279 Rocket - Pass Details

Date: 14 July 2020
Orbit: 964 x 979 km, 82.9° (Epoch: 14 August)

Event Time Altitude Azimuth Distance (km) Brightness Sun altitude
Exits shadow 09:19:17 67° 264° (W) 1,052 3.8 -26.8°
Maximum altitude 09:19:25 67° 272° (W) 1,050 3.8 -26.8°
Drops below altitude 10° 09:25:34 10° 354° (N) 2,705 6.4 -25.4°
Sets 09:28:04 0° 357° (N) 3,645 7.2 -24.8°
